Location: Newark
(43.6583°N, 1.6617°E)
Time: 16:10:49
(UTC+00:00)

Vanguard 1 Rocket - Pass Details

Date: 26 August 2019
Orbit: 651 x 4225 km, 34.3° (Epoch: 20 September)

Event Time Altitude Azimuth Distance (km) Brightness Sun altitude
Rises 02:55:11 0° 249° (WSW) 2,957 - -22.2°
Reaches altitude 10° 02:57:32 10° 237° (WSW) 2,068 - -21.8°
Maximum altitude 03:01:28 30° 175° (S) 1,322 - -21.3°
Exits shadow 03:01:31 30° 174° (S) 1,325 7.9 -21.3°
Drops below altitude 10° 03:06:33 10° 116° (ESE) 2,716 10.1 -20.6°
Sets 03:10:09 0° 106° (ESE) 4,099 11.3 -20.1°
